Location: Heisede
(52.2582°N, 9.8523°E)
Time: 23:26:57
(UTC+00:00)

ATLAS 2AS CENTAUR R/B - Pass Details

Date: 13 January 2026
Orbit: 1050 x 1161 km, 63.7° (Epoch: 17 February)

Event Time Altitude Azimuth Distance (km) Brightness Sun altitude
Exits shadow 05:06:36 24° 320° (NW) 2,022 3.7 -20.2°
Maximum altitude 05:10:54 72° 40° (NE) 1,105 2.8 -19.6°
Drops below altitude 10° 05:17:39 10° 125° (SE) 2,865 6.0 -18.6°
Sets 05:20:17 0° 127° (SE) 3,822 6.8 -18.2°
